Погода в Млаве

Польша     53°07′07″N   20°22′02″E
темп.,
°C
ветер,
м/с
пор.,
м/с
влажн.,
%
обл.,
%
осадки,
мм/ч
давл.,
гПа
погр.,
м
28 февраля, вс
вс2801:000зсз378921 0.0 1033201
04:00+1з488079 0.0 1032248
07:000з499067 0.0 1032274
10:00+4зсз6108340 0.0 1031495
13:00+4сз698670 0.0 1030659
16:00+4сз51086100 0.0 1030641
19:00+2сз4109478 0.0 1031274
22:00+1ссз510930 0.0 1032238
1 марта, пн
пн101:00+1ссз48930 0.0 1034184
04:000ссз34920 0.0 103373
07:00+1ссз23900 0.0 103438
10:00+6зсз34730 0.0 1034278
13:00+8з45660 0.0 1034436
16:00+8зюз47700 0.0 1032375
19:00+4зюз49880 0.0 1032200
22:00+3з411910 0.0 1032220
2 марта, вт
вт201:00+2з511910 0.0 1032267
04:00+1з410930 0.0 1030240
07:00+1з49950 0.0 1031260
10:00+5зсз578238 0.0 1031441
13:00+8зсз467329 0.0 1031547
16:00+7зсз47760 0.0 1030549
19:00+3ссз379416 0.0 1030196
22:00+2зсз229564 0.0 103126
3 марта, ср
ср301:00+1зсз229633 0.0 103122
04:00+1зсз22975 0.0 103022
07:00+1зсз129733 0.0 103057
10:00+3з228799 0.0 1030331
13:00+5зсз237897 0.0 1029486
16:00+6зсз147457 0.0 1027463
19:00+3зюз118629 0.0 102622
22:00+2юз23860 0.0 102422
4 марта, чт
чт401:00+2юз34860 0.0 102241
04:00+1юз34890 0.0 101964
07:00+1юз369123 0.0 1017134
10:00+7зюз587551 0.0 1015384
13:00+9зюз587066 0.0 1012740
16:00+9з487397 0.0 1010747
19:00+6зюз378698 0.0 1009174
22:00+4с4893100 2.5 1008414